sat.trackr.live / text

‹ back to catalog

STARLINK-31275

NORAD 59197 · 2024-045V

PAYLOAD ACTIVE UNKNOWN

§ Identity

Operator
Country
US
Launch date
2024-03-10
Launch site
AFETR
Launch vehicle
Mass (kg)
RCS (m²)

Purposes: comms

External: N2YO · Heavens-Above · Gunter

§ Orbital elements

Epoch: 2026-05-25T00:40:57.177984Z

Period
94.27 min
Inclination
43.0031°
Eccentricity
0.0001414
Mean motion
15.27589952 rev/d
Perigee alt
482.0 km
Apogee alt
484.0 km
Semi-major
6,861.2 km
B*
6.4317e-4
RAAN
21.6584°
Arg perigee
270.0878°
Mean anomaly
89.9811°
Rev number
12,483

§ Raw data

STARLINK-312751 59197U 24045V   26145.02843956  .00017484  00000+0  64317-3 0  99982 59197  43.0031  21.6584 0001414 270.0878  89.9811 15.27589952124839

JSON: /api/v1/satellites/59197 · /tle

For live sub-satellite position, see the globe view (requires WebGL).

§ Visibility from observer

Set your observer location to see the next 7 days of passes ≥ 10°. The values pass through the URL so the page stays shareable.

No JS? Fill the form by hand. The geolocation button needs JavaScript.